Météo par heure à Kyselykha

Ce jour, 25 Juillet, Dimanche

Heure Température Précipitation Vent Pression Humidité
00:00 +20°C° 0 mm 1 m/s 750 mmHg 72%
01:00 +20°C° 0 mm 1 m/s 750 mmHg 72%
02:00 +20°C° 0 mm 1 m/s 750 mmHg 73%
03:00 +20°C° 0 mm 1 m/s 750 mmHg 75%
04:00 +20°C° 0 mm 1 m/s 751 mmHg 77%
05:00 +19°C° 0 mm 1 m/s 751 mmHg 79%
06:00 +21°C° 0 mm 1 m/s 751 mmHg 72%
07:00 +23°C° 0 mm 1 m/s 751 mmHg 65%
08:00 +25°C° 0 mm 1 m/s 751 mmHg 58%
09:00 +27°C° 0 mm 1 m/s 752 mmHg 53%
10:00 +28°C° 0 mm 1 m/s 752 mmHg 47%
11:00 +29°C° 0 mm 1 m/s 752 mmHg 42%
12:00 +29°C° 0 mm 1 m/s 752 mmHg 44%
13:00 +28°C° 0 mm 1 m/s 752 mmHg 45%
14:00 +28°C° 0 mm 2 m/s 751 mmHg 46%
15:00 +27°C° 0.1 mm 2 m/s 752 mmHg 51%
16:00 +26°C° 0.1 mm 2 m/s 752 mmHg 56%
17:00 +25°C° 0.1 mm 2 m/s 752 mmHg 60%
18:00 +24°C° 0.1 mm 2 m/s 752 mmHg 64%
19:00 +23°C° 0.1 mm 2 m/s 752 mmHg 67%
20:00 +22°C° 0.1 mm 1 m/s 752 mmHg 70%
21:00 +21°C° 0.2 mm 2 m/s 752 mmHg 72%
22:00 +20°C° 0.2 mm 2 m/s 753 mmHg 74%
23:00 +20°C° 0.2 mm 2 m/s 753 mmHg 75%

Demain, 26 Juillet, Lundi

Heure Température Précipitation Vent Pression Humidité
00:00 +19°C° 0.1 mm 2 m/s 753 mmHg 75%
01:00 +19°C° 0.1 mm 2 m/s 753 mmHg 74%
02:00 +18°C° 0.1 mm 2 m/s 753 mmHg 74%
03:00 +18°C° 0.1 mm 2 m/s 753 mmHg 73%
04:00 +18°C° 0.1 mm 2 m/s 753 mmHg 72%
05:00 +17°C° 0.1 mm 2 m/s 753 mmHg 71%
06:00 +20°C° 0.1 mm 2 m/s 754 mmHg 64%
07:00 +23°C° 0.1 mm 2 m/s 754 mmHg 58%
08:00 +25°C° 0.1 mm 2 m/s 754 mmHg 51%
09:00 +26°C° 0 mm 2 m/s 754 mmHg 46%
10:00 +28°C° 0 mm 2 m/s 754 mmHg 40%
11:00 +30°C° 0 mm 2 m/s 754 mmHg 34%
12:00 +30°C° 0 mm 2 m/s 754 mmHg 33%
13:00 +31°C° 0 mm 2 m/s 753 mmHg 32%
14:00 +31°C° 0 mm 2 m/s 753 mmHg 31%
15:00 +31°C° 0 mm 2 m/s 753 mmHg 32%
16:00 +31°C° 0 mm 2 m/s 753 mmHg 34%
17:00 +30°C° 0 mm 2 m/s 752 mmHg 35%
18:00 +29°C° 0 mm 2 m/s 753 mmHg 39%
19:00 +27°C° 0 mm 2 m/s 753 mmHg 44%
20:00 +25°C° 0 mm 2 m/s 753 mmHg 48%
21:00 +24°C° 0 mm 3 m/s 753 mmHg 49%
22:00 +24°C° 0 mm 3 m/s 753 mmHg 49%
23:00 +22°C° 0 mm 3 m/s 753 mmHg 50%

Après-demain, 27 Juillet, Mardi

Heure Température Précipitation Vent Pression Humidité
00:00 +22°C° 0 mm 3 m/s 753 mmHg 50%
01:00 +21°C° 0 mm 3 m/s 753 mmHg 50%
02:00 +21°C° 0 mm 3 m/s 753 mmHg 50%
03:00 +20°C° 0 mm 3 m/s 753 mmHg 51%
04:00 +20°C° 0 mm 2 m/s 753 mmHg 53%
05:00 +19°C° 0 mm 2 m/s 754 mmHg 55%
06:00 +23°C° 0 mm 2 m/s 754 mmHg 50%
07:00 +25°C° 0 mm 3 m/s 753 mmHg 45%
08:00 +27°C° 0 mm 3 m/s 753 mmHg 40%
09:00 +29°C° 0 mm 3 m/s 753 mmHg 36%
10:00 +30°C° 0 mm 3 m/s 753 mmHg 33%
11:00 +33°C° 0 mm 3 m/s 753 mmHg 30%
12:00 +33°C° 0 mm 3 m/s 753 mmHg 28%
13:00 +34°C° 0 mm 2 m/s 752 mmHg 27%
14:00 +34°C° 0 mm 2 m/s 752 mmHg 26%
15:00 +34°C° 0 mm 2 m/s 752 mmHg 26%
16:00 +34°C° 0 mm 2 m/s 752 mmHg 26%
17:00 +34°C° 0 mm 2 m/s 751 mmHg 27%
18:00 +30°C° 0 mm 2 m/s 751 mmHg 30%
19:00 +28°C° 0 mm 2 m/s 751 mmHg 34%
20:00 +26°C° 0 mm 2 m/s 751 mmHg 38%
21:00 +25°C° 0 mm 2 m/s 751 mmHg 41%
22:00 +24°C° 0 mm 2 m/s 751 mmHg 43%
23:00 +23°C° 0 mm 2 m/s 751 mmHg 46%

28 Juillet, Mercredi

Heure Température Précipitation Vent Pression Humidité
00:00 +23°C° 0 mm 2 m/s 751 mmHg 48%
01:00 +23°C° 0 mm 2 m/s 751 mmHg 50%
02:00 +21°C° 0 mm 3 m/s 751 mmHg 52%
03:00 +21°C° 0 mm 3 m/s 751 mmHg 55%
04:00 +21°C° 0 mm 3 m/s 751 mmHg 57%
05:00 +21°C° 0 mm 3 m/s 751 mmHg 59%
06:00 +23°C° 0 mm 4 m/s 750 mmHg 55%
07:00 +26°C° 0 mm 4 m/s 750 mmHg 51%
08:00 +28°C° 0 mm 5 m/s 750 mmHg 46%
09:00 +29°C° 0 mm 5 m/s 750 mmHg 43%
10:00 +30°C° 0 mm 5 m/s 750 mmHg 40%
11:00 +32°C° 0 mm 5 m/s 749 mmHg 37%
12:00 +32°C° 0 mm 4 m/s 749 mmHg 39%
13:00 +32°C° 0 mm 4 m/s 749 mmHg 41%
14:00 +30°C° 0 mm 3 m/s 748 mmHg 43%
15:00 +31°C° 0 mm 3 m/s 748 mmHg 41%
16:00 +32°C° 0 mm 4 m/s 748 mmHg 40%
17:00 +33°C° 0 mm 5 m/s 747 mmHg 38%
18:00 +29°C° 0.5 mm 4 m/s 747 mmHg 50%
19:00 +26°C° 0.5 mm 4 m/s 747 mmHg 62%
20:00 +22°C° 0.5 mm 3 m/s 747 mmHg 74%
21:00 +23°C° 1.9 mm 2 m/s 747 mmHg 79%
22:00 +21°C° 1.9 mm 2 m/s 747 mmHg 85%
23:00 +20°C° 1.9 mm 2 m/s 747 mmHg 91%

29 Juillet, Jeudi

Heure Température Précipitation Vent Pression Humidité
00:00 +20°C° 0.1 mm 2 m/s 747 mmHg 91%
01:00 +20°C° 0.1 mm 2 m/s 746 mmHg 91%
02:00 +20°C° 0.1 mm 3 m/s 746 mmHg 92%
03:00 +20°C° 0 mm 2 m/s 746 mmHg 92%
04:00 +20°C° 0 mm 2 m/s 746 mmHg 91%
05:00 +20°C° 0 mm 2 m/s 745 mmHg 91%
06:00 +23°C° 0 mm 2 m/s 746 mmHg 84%
07:00 +25°C° 0 mm 2 m/s 746 mmHg 78%
08:00 +26°C° 0 mm 2 m/s 746 mmHg 71%
09:00 +28°C° 0 mm 2 m/s 745 mmHg 63%
10:00 +30°C° 0 mm 3 m/s 745 mmHg 55%
11:00 +33°C° 0 mm 3 m/s 745 mmHg 48%
12:00 +34°C° 0 mm 4 m/s 745 mmHg 45%
13:00 +34°C° 0 mm 4 m/s 745 mmHg 43%
14:00 +34°C° 0 mm 5 m/s 744 mmHg 40%
15:00 +34°C° 0.1 mm 5 m/s 744 mmHg 44%
16:00 +33°C° 0.1 mm 6 m/s 744 mmHg 49%
17:00 +32°C° 0.1 mm 7 m/s 743 mmHg 53%
18:00 +28°C° 1.4 mm 6 m/s 744 mmHg 64%
19:00 +25°C° 1.4 mm 4 m/s 744 mmHg 76%
20:00 +21°C° 1.4 mm 3 m/s 744 mmHg 88%
21:00 +21°C° 1.1 mm 3 m/s 744 mmHg 89%
22:00 +20°C° 1.1 mm 2 m/s 744 mmHg 91%
23:00 +20°C° 1.1 mm 2 m/s 744 mmHg 92%

30 Juillet, Vendredi

Heure Température Précipitation Vent Pression Humidité
00:00 +20°C° 0.1 mm 2 m/s 744 mmHg 93%
01:00 +19°C° 0.1 mm 3 m/s 744 mmHg 94%
02:00 +19°C° 0.1 mm 3 m/s 744 mmHg 96%
03:00 +19°C° 0 mm 3 m/s 745 mmHg 95%
04:00 +19°C° 0 mm 4 m/s 745 mmHg 95%
05:00 +19°C° 0 mm 5 m/s 745 mmHg 95%
06:00 +20°C° 0 mm 5 m/s 745 mmHg 90%
07:00 +21°C° 0 mm 5 m/s 746 mmHg 85%
08:00 +22°C° 0 mm 5 m/s 746 mmHg 81%
09:00 +23°C° 0 mm 4 m/s 746 mmHg 73%
10:00 +26°C° 0 mm 4 m/s 746 mmHg 64%
11:00 +28°C° 0 mm 4 m/s 746 mmHg 56%
12:00 +28°C° 0 mm 4 m/s 746 mmHg 56%
13:00 +28°C° 0 mm 4 m/s 747 mmHg 55%
14:00 +28°C° 0 mm 4 m/s 747 mmHg 55%
15:00 +27°C° 0 mm 4 m/s 747 mmHg 55%
16:00 +27°C° 0 mm 4 m/s 747 mmHg 56%
17:00 +27°C° 0 mm 3 m/s 747 mmHg 57%
18:00 +26°C° 0 mm 3 m/s 747 mmHg 62%
19:00 +25°C° 0 mm 2 m/s 747 mmHg 66%
20:00 +23°C° 0 mm 2 m/s 748 mmHg 71%
21:00 +23°C° 0 mm 1 m/s 748 mmHg 74%
22:00 +22°C° 0 mm 1 m/s 748 mmHg 76%
23:00 +21°C° 0 mm 1 m/s 748 mmHg 79%
Voir plus

Nous avons besoin de votre consentement

Meteoprog et ses fournisseurs de services peuvent stocker et accéder à des données personnelles telles que des cookies, des identifiants d'appareils ou d'autres technologies similaires sur votre appareil et traiter ces données pour personnaliser le contenu et les publicités, ainsi que pour fournir des fonctionnalités de médias sociaux et analyser le trafic.

  • Stocker et/ou accéder à des informations sur votre appareil

    Des cookies, des identifiants d'appareils ou d'autres informations peuvent être stockés ou accessibles sur votre appareil aux fins indiquées ci-dessus.

  • Annonces et contenus personnalisés, mesure des annonces et des contenus, connaissance de l'audience et développement de produits

    Les annonces et le contenu peuvent être personnalisés en fonction d'un profil. D'autres données peuvent être ajoutées pour mieux personnaliser les annonces et le contenu. Les performances des publicités et du contenu peuvent être mesurées. Il est possible d'obtenir des informations sur le public qui a vu les publicités et le contenu. Ces données peuvent être utilisées pour développer ou améliorer l'expérience de l'utilisateur, les systèmes et les logiciels.

En cliquant sur "J'accepte", vous autorisez l'utilisation de cookies, des identifiants d'appareils, des balises web ou d'autres technologies similaires. Vos paramètres peuvent être modifiés dans le navigateur de votre appareil.

Dans certains cas, des intérêts légitimes peuvent être invoqués plutôt qu'un consentement. Vous pouvez en savoir plus à ce sujet dans notre Politique de confidentialité et de cookies.